Starlink 5278

operational
NORAD ID: 54164 Int'l Des: 2022-141 Owner: SPXS Country: US Constellation: starlink
LEOCIRCULAR

关于 Starlink 5278

正在加载描述...

实时位置

正在加载3D地球...

即将过境

高度历史

Altitude vs Time

uPlot chart will show altitude changes over time

两行轨道根数

1 54164U 22141H 26035.49670003 -.00000814 00000-0 -33061-4 0 9997
2 54164 53.2175 153.3405 0001247 87.7693 272.3441 15.08836178180841
Epoch: Feb 4, 2026 • Age: 11 hours

当前状态

高度 540.5 km
速度 7.60 km/s
星下点 27.32°N, 50.65°E
发射日期 Oct 28, 2022
运行时间 3.2 years
类型 internet

技术详情

分类 Payload
质量 305.00 kg
干质量 290.00 kg
总质量 305.00 kg
长度 0.20 m
直径 2.80 m
跨度 9.00 m
形状 Box + pan
制造商 SPXS
平台类型 Starlink
阶段状态 In Orbit
所有者/国家 SPXS/US

大型星座

Loading constellations...